This is the latest recevied weather packets stored in our database for station/object K7YVO. If no packets are shown the sender has not sent any weather packets the latest 10 day(s).
| Time | Temp. | Humidity | Pressure | Rain* | Wind** | Luminosity | Snow |
|---|---|---|---|---|---|---|---|
| 1777172188 | 16.67° C | 34% | 1009.2 hPa | 0 mm | - | 9 W/m² | - |
| 1777171884 | 17.22° C | 34% | 1009.3 hPa | 0 mm | - | 12 W/m² | - |
| 1777171580 | 17.78° C | 33% | 1009.4 hPa | 0 mm | - | 17 W/m² | - |
| 1777171276 | 17.78° C | 32% | 1009.4 hPa | 0 mm | - | 22 W/m² | - |
| 1777170975 | 18.33° C | 32% | 1009.4 hPa | 0 mm | - | 28 W/m² | - |
| 1777170664 | 18.33° C | 31% | 1009.4 hPa | 0 mm | - | 30 W/m² | - |
| 1777170360 | 18.89° C | 32% | 1009.5 hPa | 0 mm | - | 36 W/m² | - |
| 1777170053 | 18.89° C | 31% | 1009.4 hPa | 0 mm | - | 40 W/m² | - |
| 1777169750 | 18.89° C | 30% | 1009.6 hPa | 0 mm | - | 44 W/m² | - |
| 1777169445 | 18.33° C | 31% | 1009.5 hPa | 0 mm | - | 43 W/m² | - |
| 1777169139 | 18.33° C | 31% | 1009.5 hPa | 0 mm | - | 49 W/m² | - |
| 1777168835 | 18.89° C | 30% | 1009.5 hPa | 0 mm | - | 61 W/m² | - |
| 1777168531 | 19.44° C | 30% | 1009.5 hPa | 0 mm | - | 58 W/m² | - |
| 1777168228 | 18.89° C | 30% | 1009.5 hPa | 0 mm | - | 57 W/m² | - |
| 1777167927 | 19.44° C | 29% | 1009.5 hPa | 0 mm | - | 53 W/m² | - |
| 1777167621 | 18.89° C | 30% | 1009.3 hPa | 0 mm | - | 59 W/m² | - |
| 1777167317 | 18.89° C | 30% | 1009.6 hPa | 0 mm | - | 69 W/m² | - |
| 1777167013 | 19.44° C | 30% | 1009.5 hPa | 0 mm | - | 76 W/m² | - |
| 1777166709 | 18.89° C | 30% | 1009.6 hPa | 0 mm | - | 86 W/m² | - |
| 1777166404 | 18.89° C | 31% | 1009.6 hPa | 0 mm | - | 100 W/m² | - |
| 1777166101 | 20° C | 29% | 1009.6 hPa | 0 mm | - | 130 W/m² | - |
| 1777165798 | 19.44° C | 29% | 1009.6 hPa | 0 mm | - | 137 W/m² | - |
| 1777165495 | 19.44° C | 29% | 1009.7 hPa | 0 mm | - | 199 W/m² | - |
| 1777165191 | 18.89° C | 30% | 1009.7 hPa | 0 mm | - | 153 W/m² | - |
| 1777164886 | 19.44° C | 29% | 1009.7 hPa | 0 mm | - | 180 W/m² | - |
* Rain latest hour (hover to see other rain measurements)
** Current wind speed in m/s (hover to see current wind gust speed)